| time (UTC) | temp F | wind direction | speed MPH | gust MPH | rain 1hr in | rain 24hr in | rain mn in | humidity % | barometer mb |
| 20260901191020 | 59 | 0.0 | 0.0 | 0.00 | 0.01 | 0.01 | 89 | ||
| 20260901190022 | 60 | 0.0 | 0.0 | 0.00 | 0.01 | 0.01 | 88 | ||
| 20260901185022 | 61 | 347 | 0.0 | 2.0 | 0.00 | 0.01 | 0.01 | 86 | |
| 20260901184028 | 62 | 348 | 0.0 | 1.0 | 0.00 | 0.01 | 0.01 | 84 | |
| 20260901183020 | 62 | 357 | 1.0 | 3.0 | 0.00 | 0.01 | 0.01 | 84 | |
| 20260901182031 | 63 | 357 | 1.0 | 2.0 | 0.00 | 0.01 | 0.01 | 83 | |
| 20260901181021 | 63 | 343 | 1.0 | 2.0 | 0.00 | 0.01 | 0.01 | 82 | |
| 20260901180029 | 63 | 334 | 1.0 | 2.0 | 0.00 | 0.01 | 0.01 | 82 | |
| 20260901175020 | 63 | 333 | 1.0 | 3.0 | 0.00 | 0.01 | 0.01 | 82 | |
| 20260901174028 | 63 | 0.0 | 0.0 | 0.00 | 0.01 | 0.01 | 83 | ||
| 20260901173019 | 64 | 202 | 0.0 | 2.0 | 0.00 | 0.01 | 0.01 | 84 | |
| 20260901172029 | 64 | 0.0 | 0.0 | 0.00 | 0.01 | 0.01 | 84 | ||
| 20260901171022 | 63 | 120 | 0.0 | 1.0 | 0.00 | 0.01 | 0.01 | 84 | |
| 20260901170029 | 63 | 360 | 0.0 | 1.0 | 0.00 | 0.01 | 0.01 | 84 | |
| 20260901165020 | 63 | 11 | 0.0 | 2.0 | 0.00 | 0.01 | 0.01 | 84 | |
| 20260901164027 | 64 | 0.0 | 1.0 | 0.00 | 0.01 | 0.01 | 84 | ||
| 20260901163022 | 64 | 0.0 | 0.0 | 0.00 | 0.01 | 0.01 | 81 | ||
| 20260901162028 | 64 | 344 | 0.0 | 2.0 | 0.00 | 0.01 | 0.01 | 80 | |
| 20260901161020 | 64 | 336 | 0.0 | 2.0 | 0.00 | 0.01 | 0.01 | 80 | |
| 20260901160024 | 64 | 341 | 1.0 | 2.0 | 0.00 | 0.01 | 0.01 | 81 | |
| 20260901155020 | 63 | 354 | 1.0 | 2.0 | 0.00 | 0.02 | 0.01 | 81 | |
| 20260901154030 | 63 | 342 | 1.0 | 2.0 | 0.00 | 0.05 | 0.01 | 81 | |
| 20260901153022 | 65 | 344 | 2.0 | 6.0 | 0.00 | 0.09 | 0.01 | 76 | |
| 20260901152028 | 66 | 351 | 2.0 | 5.0 | 0.00 | 0.09 | 0.01 | 73 | |
| 20260901151025 | 66 | 358 | 2.0 | 3.0 | 0.00 | 0.09 | 0.01 | 71 | |
| 20260901150028 | 67 | 342 | 3.0 | 7.0 | 0.01 | 0.09 | 0.01 | 69 | |
| 20260901145020 | 67 | 350 | 4.0 | 12.0 | 0.01 | 0.09 | 0.01 | 72 | |
| 20260901144028 | 68 | 338 | 4.0 | 7.0 | 0.01 | 0.17 | 0.01 | 73 | |
| 20260901143021 | 67 | 353 | 5.0 | 10.0 | 0.01 | 0.17 | 0.01 | 74 | |
| 20260901142021 | 67 | 349 | 3.0 | 4.0 | 0.01 | 0.17 | 0.01 | 78 | |
| 20260901141020 | 68 | 346 | 1.0 | 2.0 | 0.01 | 0.17 | 0.01 | 79 | |
| 20260901140029 | 70 | 352 | 3.0 | 6.0 | 0.00 | 0.15 | 0.00 | 67 | |
| 20260901135020 | 71 | 346 | 2.0 | 4.0 | 0.00 | 0.15 | 0.00 | 65 | |
| 20260901134023 | 72 | 345 | 1.0 | 4.0 | 0.00 | 0.15 | 0.00 | 64 | |
| 20260901133022 | 71 | 347 | 2.0 | 5.0 | 0.00 | 0.15 | 0.00 | 63 | |
| 20260901132028 | 71 | 357 | 2.0 | 4.0 | 0.00 | 0.15 | 0.00 | 64 | |
| 20260901131020 | 72 | 334 | 1.0 | 3.0 | 0.00 | 0.15 | 0.00 | 64 | |
| 20260901130029 | 72 | 359 | 1.0 | 3.0 | 0.00 | 0.15 | 0.00 | 62 | |
| 20260901125022 | 73 | 341 | 0.0 | 3.0 | 0.00 | 0.15 | 0.00 | 60 | |
| 20260901124031 | 73 | 290 | 1.0 | 4.0 | 0.00 | 0.15 | 0.00 | 59 | |
| 20260901123022 | 73 | 358 | 1.0 | 4.0 | 0.00 | 0.15 | 0.00 | 59 | |
| 20260901122028 | 75 | 1 | 1.0 | 4.0 | 0.00 | 0.15 | 0.00 | 59 | |
| 20260901121021 | 73 | 337 | 1.0 | 4.0 | 0.00 | 0.15 | 0.00 | 62 | |
| 20260901120030 | 74 | 353 | 1.0 | 2.0 | 0.00 | 0.15 | 0.00 | 62 | |
| 20260901115021 | 73 | 8 | 2.0 | 4.0 | 0.00 | 0.15 | 0.00 | 60 | |
| 20260901114028 | 73 | 54 | 1.0 | 4.0 | 0.00 | 0.15 | 0.00 | 62 | |
| 20260901113021 | 73 | 343 | 1.0 | 4.0 | 0.00 | 0.15 | 0.00 | 62 | |
| 20260901112028 | 73 | 342 | 2.0 | 4.0 | 0.00 | 0.15 | 0.00 | 61 | |
| 20260901111020 | 73 | 349 | 2.0 | 6.0 | 0.00 | 0.15 | 0.00 | 60 | |
| 20260901110028 | 74 | 353 | 1.0 | 6.0 | 0.00 | 0.15 | 0.00 | 61 | |
| 20260901105022 | 73 | 337 | 2.0 | 3.0 | 0.00 | 0.15 | 0.00 | 62 | |
| 20260901104019 | 73 | 307 | 1.0 | 4.0 | 0.00 | 0.15 | 0.00 | 63 | |
| 20260901103022 | 73 | 359 | 1.0 | 5.0 | 0.00 | 0.15 | 0.00 | 63 | |
| 20260901102030 | 73 | 105 | 2.0 | 5.0 | 0.00 | 0.15 | 0.00 | 63 | |
| 20260901101020 | 73 | 332 | 2.0 | 6.0 | 0.00 | 0.15 | 0.00 | 64 | |
| 20260901100028 | 72 | 30 | 2.0 | 10.0 | 0.00 | 0.15 | 0.00 | 70 | |
| 20260901095021 | 71 | 356 | 1.0 | 3.0 | 0.00 | 0.15 | 0.00 | 71 | |
| 20260901094028 | 68 | 351 | 2.0 | 5.0 | 0.00 | 0.15 | 0.00 | 74 | |
| 20260901093024 | 68 | 12 | 1.0 | 2.0 | 0.00 | 0.15 | 0.00 | 76 | |
| 20260901092029 | 67 | 349 | 1.0 | 4.0 | 0.00 | 0.15 | 0.00 | 76 | |
| 20260901091020 | 68 | 257 | 1.0 | 4.0 | 0.00 | 0.15 | 0.00 | 75 | |
| 20260901090026 | 68 | 69 | 1.0 | 4.0 | 0.00 | 0.15 | 0.00 | 75 | |
| 20260901085020 | 68 | 237 | 1.0 | 4.0 | 0.00 | 0.15 | 0.00 | 76 | |
| 20260901084028 | 68 | 155 | 1.0 | 4.0 | 0.00 | 0.15 | 0.00 | 75 | |
| 20260901083020 | 70 | 91 | 1.0 | 3.0 | 0.00 | 0.15 | 0.00 | 72 | |
| 20260901082024 | 69 | 151 | 1.0 | 4.0 | 0.00 | 0.15 | 0.00 | 75 | |
| 20260901081022 | 67 | 324 | 2.0 | 4.0 | 0.00 | 0.15 | 0.00 | 77 | |
| 20260901080030 | 68 | 97 | 1.0 | 3.0 | 0.00 | 0.15 | 0.00 | 77 | |
| 20260901075020 | 66 | 234 | 1.0 | 6.0 | 0.00 | 0.15 | 0.00 | 80 | |
| 20260901074028 | 65 | 70 | 1.0 | 4.0 | 0.00 | 0.15 | 0.00 | 81 | |
| 20260901073022 | 65 | 339 | 0.0 | 2.0 | 0.00 | 0.15 | 0.00 | 83 | |
| 20260901072021 | 63 | 84 | 0.0 | 1.0 | 0.00 | 0.15 | 0.00 | 86 | |
| 20260901071020 | 62 | 157 | 0.0 | 1.0 | 0.00 | 0.15 | 0.00 | 88 | |
| 20260901070028 | 61 | 226 | 0.0 | 2.0 | 0.00 | 0.15 | 0.00 | 89 | |
| 20260901065024 | 61 | 159 | 0.0 | 2.0 | 0.00 | 0.15 | 0.00 | 90 | |
| 20260901064028 | 61 | 147 | 0.0 | 2.0 | 0.00 | 0.15 | 0.00 | 91 | |
| 20260901063020 | 60 | 145 | 1.0 | 2.0 | 0.00 | 0.15 | 0.00 | 90 | |
| 20260901062030 | 60 | 219 | 0.0 | 3.0 | 0.00 | 0.15 | 0.00 | 91 | |
| 20260901061020 | 60 | 191 | 1.0 | 3.0 | 0.00 | 0.15 | 0.00 | 91 | |
| 20260901060031 | 60 | 168 | 1.0 | 3.0 | 0.00 | 0.15 | 0.00 | 92 | |
| 20260901055021 | 59 | 145 | 1.0 | 2.0 | 0.00 | 0.15 | 0.00 | 92 | |
| 20260901054028 | 59 | 179 | 1.0 | 3.0 | 0.00 | 0.15 | 0.00 | 92 | |
| 20260901053021 | 59 | 135 | 1.0 | 2.0 | 0.00 | 0.15 | 0.00 | 93 | |
| 20260901052020 | 59 | 163 | 1.0 | 3.0 | 0.00 | 0.15 | 0.00 | 93 | |
| 20260901051020 | 59 | 154 | 1.0 | 3.0 | 0.00 | 0.15 | 0.00 | 94 | |
| 20260901050028 | 58 | 139 | 1.0 | 2.0 | 0.00 | 0.15 | 0.00 | 94 | |
| 20260901045020 | 58 | 137 | 0.0 | 2.0 | 0.00 | 0.15 | 0.00 | 95 | |
| 20260901044028 | 57 | 180 | 0.0 | 4.0 | 0.00 | 0.15 | 0.00 | 94 | |
| 20260901043020 | 57 | 165 | 0.0 | 2.0 | 0.00 | 0.15 | 0.00 | 94 | |
| 20260901042028 | 57 | 0.0 | 0.0 | 0.00 | 0.15 | 0.00 | 94 | ||
| 20260901041020 | 57 | 151 | 0.0 | 2.0 | 0.00 | 0.15 | 0.00 | 94 | |
| 20260901040028 | 58 | 94 | 0.0 | 2.0 | 0.00 | 0.15 | 0.00 | 93 | |
| 20260901035020 | 58 | 0.0 | 0.0 | 0.00 | 0.15 | 0.00 | 92 | ||
| 20260901034029 | 59 | 340 | 0.0 | 2.0 | 0.00 | 0.15 | 0.00 | 92 | |
| 20260901033021 | 59 | 337 | 1.0 | 2.0 | 0.00 | 0.15 | 0.00 | 92 | |
| 20260901032028 | 58 | 345 | 0.0 | 2.0 | 0.00 | 0.15 | 0.00 | 93 | |
| 20260901031021 | 59 | 351 | 0.0 | 2.0 | 0.00 | 0.15 | 0.00 | 93 | |
| 20260901030025 | 58 | 78 | 0.0 | 3.0 | 0.00 | 0.15 | 0.00 | 94 | |
| 20260901025020 | 58 | 0.0 | 0.0 | 0.00 | 0.15 | 0.00 | 94 | ||
| 20260901024028 | 58 | 158 | 0.0 | 2.0 | 0.00 | 0.15 | 0.00 | 94 | |
| 20260901023020 | 58 | 350 | 0.0 | 1.0 | 0.00 | 0.15 | 0.00 | 94 | |
| 20260901022028 | 58 | 57 | 0.0 | 1.0 | 0.00 | 0.15 | 0.00 | 94 | |
| 20260901021022 | 58 | 43 | 0.0 | 4.0 | 0.00 | 0.15 | 0.00 | 93 | |
| 20260901020024 | 58 | 0.0 | 0.0 | 0.00 | 0.15 | 0.00 | 93 | ||
| 20260901015024 | 59 | 0.0 | 0.0 | 0.00 | 0.15 | 0.00 | 92 | ||
| 20260901014028 | 59 | 0.0 | 0.0 | 0.00 | 0.15 | 0.00 | 92 | ||
| 20260901013023 | 59 | 0.0 | 1.0 | 0.00 | 0.15 | 0.00 | 92 | ||
| 20260901012028 | 59 | 0.0 | 0.0 | 0.00 | 0.15 | 0.00 | 92 | ||
| 20260901011024 | 59 | 342 | 0.0 | 1.0 | 0.00 | 0.15 | 0.00 | 92 | |
| 20260901010029 | 60 | 25 | 0.0 | 2.0 | 0.00 | 0.15 | 0.00 | 92 | |
| 20260901005020 | 60 | 140 | 0.0 | 1.0 | 0.00 | 0.15 | 0.00 | 92 | |
| 20260901004030 | 60 | 347 | 0.0 | 2.0 | 0.00 | 0.15 | 0.00 | 91 | |
| 20260901003023 | 59 | 358 | 1.0 | 3.0 | 0.00 | 0.15 | 0.00 | 92 | |
| 20260901002020 | 59 | 0.0 | 0.0 | 0.00 | 0.15 | 0.00 | 91 | ||
| 20260901001022 | 59 | 343 | 0.0 | 1.0 | 0.00 | 0.15 | 0.00 | 91 | |
| 20260901000022 | 60 | 52 | 0.0 | 2.0 | 0.00 | 0.15 | 0.00 | 90 | |
| 20260831235020 | 60 | 346 | 1.0 | 3.0 | 0.00 | 0.15 | 0.00 | 91 | |
| 20260831234029 | 60 | 348 | 0.0 | 1.0 | 0.00 | 0.15 | 0.00 | 91 | |
| 20260831233022 | 60 | 13 | 0.0 | 2.0 | 0.00 | 0.15 | 0.00 | 90 | |
| 20260831232028 | 60 | 51 | 0.0 | 2.0 | 0.00 | 0.15 | 0.00 | 90 | |
| 20260831231020 | 60 | 130 | 0.0 | 2.0 | 0.00 | 0.15 | 0.00 | 90 | |
| 20260831230028 | 60 | 161 | 0.0 | 2.0 | 0.00 | 0.15 | 0.00 | 90 | |
| 20260831225020 | 60 | 82 | 0.0 | 1.0 | 0.00 | 0.15 | 0.00 | 90 | |
| 20260831224028 | 60 | 112 | 0.0 | 3.0 | 0.00 | 0.15 | 0.00 | 89 | |
| 20260831223020 | 60 | 311 | 1.0 | 3.0 | 0.00 | 0.15 | 0.00 | 88 | |
| 20260831222030 | 60 | 355 | 1.0 | 5.0 | 0.00 | 0.15 | 0.00 | 87 | |
| 20260831221020 | 60 | 164 | 1.0 | 4.0 | 0.00 | 0.15 | 0.00 | 88 | |
| 20260831220029 | 60 | 346 | 1.0 | 4.0 | 0.00 | 0.15 | 0.00 | 88 | |
| 20260831215022 | 60 | 95 | 1.0 | 4.0 | 0.00 | 0.15 | 0.15 | 89 | |
| 20260831214030 | 60 | 88 | 1.0 | 4.0 | 0.00 | 0.15 | 0.15 | 89 | |
| 20260831213020 | 59 | 62 | 1.0 | 3.0 | 0.00 | 0.15 | 0.15 | 89 | |
| 20260831212028 | 59 | 86 | 0.0 | 2.0 | 0.00 | 0.15 | 0.15 | 89 | |
| 20260831211020 | 60 | 102 | 0.0 | 3.0 | 0.00 | 0.15 | 0.15 | 89 | |
| 20260831210029 | 60 | 144 | 1.0 | 3.0 | 0.00 | 0.15 | 0.15 | 89 | |
| 20260831205023 | 60 | 219 | 1.0 | 4.0 | 0.00 | 0.15 | 0.15 | 88 | |
| 20260831204028 | 60 | 50 | 1.0 | 4.0 | 0.00 | 0.15 | 0.15 | 87 | |
| 20260831203023 | 60 | 153 | 1.0 | 4.0 | 0.00 | 0.15 | 0.15 | 87 | |
| 20260831202030 | 60 | 147 | 1.0 | 4.0 | 0.00 | 0.15 | 0.15 | 87 | |
| 20260831201021 | 60 | 105 | 1.0 | 3.0 | 0.00 | 0.15 | 0.15 | 89 | |
| 20260831200028 | 59 | 70 | 1.0 | 4.0 | 0.00 | 0.15 | 0.15 | 90 | |
| 20260831195020 | 59 | 159 | 1.0 | 2.0 | 0.00 | 0.15 | 0.15 | 90 | |
| 20260831194030 | 59 | 178 | 0.0 | 2.0 | 0.00 | 0.15 | 0.15 | 89 | |
| 20260831193020 | 60 | 169 | 0.0 | 2.0 | 0.00 | 0.15 | 0.15 | 89 | |
| 20260831192032 | 60 | 164 | 0.0 | 1.0 | 0.00 | 0.15 | 0.15 | 91 |